Lid_Strength_Index
11 11 11 11 10 9 9 8 8 7 7 6 5 5 5 5 4 4 4 4 6 7 7 6 7 7 8 8 8 8 9 8 7 8 9 10 12 13 12 11 10 10 10
11 11 11 11 11 11 10 10 9 8 8 7 7 7 7 7 6 7 7 7 8 9 9 10 9 9 9 9 9 9 10 10 9 11 11 12 12 12 11 12 11 11 12
12 12 12 12 11 11 10 10 10 9 9 8 8 8 8 8 8 9 9 10 10 10 10 11 11 10 11 11 11 11 11 11 12 12 13 13 11 12 13 13 13 13 12
13 12 13 13 12 12 11 11 11 10 10 9 9 8 8 8 9 10 10 10 11 11 12 12 12 11 12 11 12 12 12 14 13 14 14 13 14 13 14 14 15 14 14
12 14 13 13 12 12 12 12 12 11 11 10 10 9 9 9 9 10 10 11 11 13 12 12 12 13 13 12 13 13 14 14 15 15 14 14 14 14 14 14 15 15 16
14 13 13 13 13 13 13 12 12 12 12 11 11 10 10 10 10 9 10 11 12 12 13 14 14 14 12 11 11 11 13 14 13 14 14 14 14 14 14 14 15 16 18
14 15 13 13 13 13 13 13 13 13 12 12 12 11 11 11 10 11 11 12 13 13 14 14 14 14 14 13 12 12 11 10 11 13 14 14 14 14 14 15 15 16 17
15 14 13 13 14 14 13 14 14 13 13 13 13 13 12 12 10 11 12 13 13 14 14 15 15 15 14 14 14 14 13 12 12 12 13 13 13 13 14 14 14 18 21
15 14 14 15 15 15 15 16 16 15 14 14 14 15 13 13 11 11 13 14 15 15 14 14 14 14 12 12 14 14 14 14 11 11 12 12 12 12 12 16 17 20 26
15 15 15 15 15 16 16 16 15 15 15 15 15 15 15 14 12 12 13 14 15 14 14 13 12 12 11 12 14 14 15 15 15 16 14 14 14 14 13 15 15 20 19
16 16 16 15 15 15 15 16 15 16 16 17 16 16 15 14 13 11 11 13 14 14 14 14 13 11 11 11 12 14 14 14 15 15 15 15 15 15 15 16 16 17 19
17 18 18 17 15 15 17 17 17 17 17 18 18 17 16 15 12 11 11 12 12 14 15 15 14 11 12 12 13 13 13 14 15 16 16 17 16 16 16 19 20 20 19
20 20 20 19 17 16 17 18 18 19 19 19 18 19 18 17 16 11 11 12 12 15 15 13 12 12 13 14 14 14 15 16 16 17 17 17 17 20 22 23 22 24 25
20 20 20 19 19 19 16 16 18 19 19 18 19 20 21 20 19 18 16 15 14 15 14 17 15 16 16 19 21 17 16 16 17 17 17 20 23 25 25 25 26 27 28
20 20 20 19 18 19 18 18 17 18 18 20 22 20 22 23 20 17 18 20 20 18 23 25 26 26 25 26 24 19 17 16 17 17 22 26 27 27 27 29 28 29 28
19 19 19 19 20 19 19 21 14 14 13 12 13 17 19 16 13 13 14 14 14 14 26 28 28 29 27 29 23 20 18 18 17 17 20 26 28 28 28 29 29 30 30
18 18 19 19 19 19 22 20 18 15 13 13 12 12 13 14 12 13 13 13 12 15 28 30 28 27 30 31 30 20 20 18 17 18 18 25 29 29 29 30 30 30 29
18 20 18 18 19 21 21 20 24 22 20 19 16 14 13 13 13 13 13 14 18 22 30 28 27 27 28 28 23 20 29 23 21 27 21 26 31 29 29 30 31 30 31
18 17 18 18 18 18 19 21 22 24 25 28 29 18 17 13 13 13 13 21 23 26 28 28 28 25 26 24 21 22 25 25 27 27 28 26 25 24 29 32 31 28 29
17 16 17 18 18 18 19 19 20 20 21 22 23 20 27 20 16 16 17 21 22 23 24 23 24 24 24 23 21 21 23 25 26 26 26 25 25 23 25 28 30 27 29
16 16 17 17 17 17 17 18 18 18 18 18 18 19 19 18 18 19 19 21 20 19 21 22 23 23 24 24 24 21 22 23 25 24 24 25 25 24 28 27 29 29 28
16 16 17 16 16 16 16 16 16 17 17 17 17 18 15 18 19 19 20 20 20 19 19 20 21 22 22 22 22 21 20 22 24 24 23 24 24 25 25 26 27 28 28
17 18 17 16 15 15 15 15 16 16 16 16 16 19 17 16 18 19 19 19 19 20 21 21 21 22 22 21 21 21 21 22 21 22 22 23 23 22 24 23 25 25 25
17 17 17 17 16 15 15 15 15 15 15 16 17 17 18 17 16 17 18 18 19 19 21 20 20 20 22 22 22 22 21 22 22 21 21 21 21 21 22 22 22 22 23
16 17 17 17 17 17 16 16 16 16 17 17 16 17 17 18 18 16 17 18 19 20 20 20 20 20 20 22 22 22 22 22 23 23 23 23 22 21 21 21 22 24 25
16 16 16 16 16 16 15 16 16 16 17 17 17 17 18 19 19 18 19 20 20 20 20 20 20 20 20 21 21 21 22 21 23 23 23 22 22 21 21 21 21 22 23